�N����,����,�~����,�C��,���x,�C��,����,���ϕ���,�ő�u�ԕ���,�ő厞����,���˗�,�I�_���x,�n�����x,�ő啗���N��,DTYPE
"19/01/25","00:10",0.0,2.4,80.2,1014.9,325.9,3.4,5.4,322.3,0.00,-0.6,5.5,"00:05:58",1
"19/01/25","00:20",0.0,2.3,79.8,1014.7,324.0,3.6,4.8,322.5,0.00,-0.8,5.3,"00:13:12",1
"19/01/25","00:30",0.0,1.9,79.9,1014.7,327.7,3.7,4.9,314.4,0.00,-1.2,5.4,"00:27:10",1
"19/01/25","00:40",0.0,1.8,81.0,1014.2,325.4,3.5,5.7,326.4,0.00,-1.1,5.3,"00:32:30",1
"19/01/25","00:50",0.0,1.8,81.9,1014.0,323.2,3.2,4.4,321.1,0.00,-0.9,5.2,"00:41:36",1
"19/01/25","01:00",0.0,1.9,82.9,1014.2,324.0,4.0,5.5,323.6,0.00,-0.7,5.2,"00:51:26",1
"19/01/25","01:10",0.0,2.1,82.7,1014.2,321.5,3.4,5.0,330.9,0.00,-0.5,5.0,"01:05:06",1
"19/01/25","01:20",0.0,2.2,82.4,1014.2,322.9,3.1,4.7,333.1,0.00,-0.4,5.0,"01:19:12",1
"19/01/25","01:30",0.0,2.3,81.9,1014.5,322.4,3.5,4.7,325.0,0.00,-0.4,5.1,"01:24:40",1
"19/01/25","01:40",0.0,2.4,81.8,1014.9,322.9,3.5,5.2,326.1,0.00,-0.3,5.2,"01:39:12",1
"19/01/25","01:50",0.0,2.4,81.5,1014.9,320.2,3.4,5.1,325.6,0.00,-0.4,4.9,"01:45:04",1
"19/01/25","02:00",0.0,2.4,81.8,1014.7,317.5,3.0,4.0,322.1,0.00,-0.3,5.1,"01:54:56",1
"19/01/25","02:10",0.0,2.5,81.7,1014.7,320.8,2.6,4.8,315.4,0.00,-0.3,5.2,"02:00:16",1
"19/01/25","02:20",0.0,2.6,81.5,1014.9,323.4,3.2,5.7,315.2,0.00,-0.2,5.0,"02:17:04",1
"19/01/25","02:30",0.0,2.5,81.6,1015.2,322.1,3.0,4.3,331.6,0.00,-0.3,5.1,"02:20:40",1
"19/01/25","02:40",0.0,2.4,82.4,1015.2,323.1,2.3,3.6,327.6,0.00,-0.2,5.1,"02:36:40",1
"19/01/25","02:50",0.0,2.4,83.3,1014.7,319.0,1.7,2.7,315.2,0.00,-0.1,4.9,"02:42:40",1
"19/01/25","03:00",0.0,2.3,83.8,1014.7,314.8,2.0,2.7,321.4,0.00,-0.1,5.2,"02:50:02",1
"19/01/25","03:10",0.0,2.2,84.7,1014.7,312.7,1.5,2.7,326.5,0.00,-0.1,5.2,"03:00:40",1
"19/01/25","03:20",0.0,2.1,85.2,1014.9,304.6,1.5,2.6,311.4,0.00,-0.1,5.3,"03:16:16",1
"19/01/25","03:30",0.0,1.9,86.0,1014.7,300.6,1.5,2.4,316.8,0.00,-0.2,5.1,"03:24:56",1
"19/01/25","03:40",0.0,1.7,86.5,1014.5,317.3,1.5,2.2,318.3,0.00,-0.3,5.0,"03:31:44",1
"19/01/25","03:50",0.0,1.2,86.5,1014.5,319.6,2.0,2.6,328.3,0.00,-0.8,5.1,"03:47:36",1
"19/01/25","04:00",0.0,0.9,88.6,1014.7,308.7,1.8,2.6,321.6,0.00,-0.7,4.9,"03:56:00",1
"19/01/25","04:10",0.0,0.9,88.9,1014.2,315.3,1.8,2.7,326.8,0.00,-0.7,5.0,"04:06:00",1
"19/01/25","04:20",0.0,0.8,89.2,1014.2,328.3,2.0,2.7,325.5,0.00,-0.7,4.9,"04:17:36",1
"19/01/25","04:30",0.0,0.6,89.4,1014.2,316.9,1.8,2.5,334.9,0.00,-0.9,4.8,"04:23:20",1
"19/01/25","04:40",0.0,0.5,89.1,1013.8,314.9,1.7,2.7,321.3,0.00,-1.0,4.9,"04:37:44",1
"19/01/25","04:50",0.0,0.2,90.1,1014.2,297.0,1.8,2.5,303.6,0.00,-1.2,4.8,"04:47:36",1
"19/01/25","05:00",0.0,-0.1,90.4,1014.0,301.3,1.8,2.1,305.7,0.00,-1.4,4.7,"04:52:08",1
"19/01/25","05:10",0.0,0.0,91.6,1014.2,327.5,1.7,2.4,328.7,0.00,-1.2,4.6,"05:02:40",1
"19/01/25","05:20",0.0,0.1,91.5,1014.2,338.0,1.7,2.7,352.9,0.00,-1.1,4.7,"05:14:40",1
"19/01/25","05:30",0.0,-0.2,91.6,1014.0,305.6,1.5,2.7,325.5,0.00,-1.4,4.4,"05:25:44",1
"19/01/25","05:40",0.0,0.0,92.3,1013.5,282.6,1.6,2.6,320.2,0.00,-1.1,4.6,"05:30:02",1
"19/01/25","05:50",0.0,0.2,92.5,1014.0,313.9,1.7,2.7,321.4,0.00,-0.8,4.5,"05:40:16",1
"19/01/25","06:00",0.0,0.1,92.5,1014.2,191.8,0.2,1.3,313.3,0.00,-0.9,4.5,"05:59:44",1
"19/01/25","06:10",0.0,0.1,92.7,1014.0,305.9,1.3,2.4,320.3,0.00,-0.9,4.4,"06:01:04",1
"19/01/25","06:20",0.0,0.1,92.8,1013.8,311.6,1.7,2.4,312.4,0.00,-0.9,4.4,"06:10:24",1
"19/01/25","06:30",0.0,0.0,92.8,1014.0,319.7,1.6,2.5,329.1,0.00,-1.0,4.5,"06:28:32",1
"19/01/25","06:40",0.0,0.0,93.3,1013.8,328.9,1.6,2.4,321.8,0.00,-0.9,4.3,"06:37:04",1
"19/01/25","06:50",0.0,-0.2,93.2,1013.8,310.4,1.5,2.1,324.9,0.00,-1.1,4.4,"06:42:56",1
"19/01/25","07:00",0.0,-0.3,93.9,1013.5,306.0,1.0,1.6,336.8,0.00,-1.1,4.5,"06:56:24",1
"19/01/25","07:10",0.0,-0.1,94.2,1013.8,349.2,0.5,1.7,331.6,0.00,-0.9,4.3,"07:06:48",1
"19/01/25","07:20",0.0,-0.2,93.8,1014.0,323.1,1.1,1.8,300.0,0.00,-1.0,4.2,"07:13:20",1
"19/01/25","07:30",0.0,-0.3,94.3,1013.5,334.0,1.1,1.8,323.7,0.00,-1.1,4.2,"07:25:52",1
"19/01/25","07:40",0.0,-0.3,94.8,1014.0,333.9,1.3,2.0,326.4,0.00,-1.0,4.4,"07:30:56",1
"19/01/25","07:50",0.0,-0.1,94.6,1013.5,302.1,0.3,1.2,307.8,0.00,-0.8,4.3,"07:41:36",1
"19/01/25","08:00",0.0,0.3,94.9,1014.0,264.5,0.7,1.4,310.1,0.00,-0.4,4.2,"07:56:08",1
"19/01/25","08:10",0.0,0.6,94.7,1013.8,278.2,1.1,1.9,303.9,0.01,-0.1,4.3,"08:05:44",1
"19/01/25","08:20",0.0,0.6,94.6,1014.2,316.7,2.2,2.9,320.2,0.02,-0.1,4.3,"08:14:56",1
"19/01/25","08:30",0.0,1.4,93.8,1014.0,316.1,1.3,2.5,320.2,0.04,0.6,4.3,"08:21:44",1
"19/01/25","08:40",0.0,1.8,92.7,1014.2,232.2,0.5,0.9,284.7,0.05,0.8,4.3,"08:30:16",1
"19/01/25","08:50",0.0,2.3,90.8,1014.0,220.2,0.6,1.3,252.1,0.07,1.0,4.5,"08:47:46",1
"19/01/25","09:00",0.0,2.9,88.4,1014.5,268.0,0.7,1.0,283.6,0.08,1.2,4.4,"08:58:02",1
"19/01/25","09:10",0.0,3.0,86.8,1014.7,227.6,1.0,1.4,209.5,0.07,1.1,4.6,"09:08:54",1
"19/01/25","09:20",0.0,3.4,85.5,1014.7,217.4,1.0,1.9,247.4,0.09,1.2,4.6,"09:13:04",1
"19/01/25","09:30",0.0,3.9,83.3,1014.5,190.8,0.7,1.2,141.4,0.14,1.4,4.7,"09:22:24",1
"19/01/25","09:40",0.0,3.9,81.5,1014.5,167.5,0.6,1.4,95.1,0.12,1.1,4.9,"09:39:48",1
"19/01/25","09:50",0.0,4.0,81.0,1014.9,211.4,0.6,1.6,126.6,0.09,1.1,4.8,"09:40:08",1
"19/01/25","10:00",0.0,4.4,79.7,1014.7,241.6,1.1,1.8,239.0,0.12,1.2,5.1,"09:59:52",1
"19/01/25","10:10",0.0,4.4,79.1,1015.2,260.5,1.2,2.0,224.4,0.16,1.1,5.3,"10:03:16",1
"19/01/25","10:20",0.0,5.4,77.3,1014.9,265.9,1.1,2.4,211.2,0.25,1.8,5.4,"10:18:18",1
"19/01/25","10:30",0.0,5.3,75.6,1014.9,218.8,0.8,1.7,203.4,0.31,1.4,5.6,"10:20:16",1
"19/01/25","10:40",0.0,5.7,75.2,1015.2,206.6,1.1,2.6,191.1,0.31,1.7,5.7,"10:32:40",1
"19/01/25","10:50",0.0,6.1,73.5,1015.2,190.4,1.1,3.2,155.7,0.29,1.8,5.8,"10:40:48",1
"19/01/25","11:00",0.0,6.1,73.1,1014.9,205.0,1.5,3.1,234.5,0.25,1.7,6.2,"10:54:16",1
"19/01/25","11:10",0.0,6.0,72.0,1014.9,200.8,1.2,2.8,177.5,0.21,1.4,6.2,"11:05:34",1
"19/01/25","11:20",0.0,6.2,71.1,1014.5,196.6,1.2,3.5,196.7,0.20,1.4,6.5,"11:16:00",1
"19/01/25","11:30",0.0,6.1,70.3,1014.2,165.5,1.2,2.9,101.9,0.15,1.1,6.5,"11:26:48",1
"19/01/25","11:40",0.0,6.2,69.8,1014.2,171.7,1.3,2.7,182.3,0.11,1.1,6.7,"11:36:56",1
"19/01/25","11:50",0.0,6.6,69.2,1013.8,221.2,1.1,3.1,220.4,0.19,1.4,6.8,"11:44:40",1
"19/01/25","12:00",0.0,7.1,66.8,1013.3,210.6,2.2,4.8,207.2,0.38,1.4,7.1,"11:55:52",1
"19/01/25","12:10",0.0,6.9,67.3,1013.0,166.2,2.1,4.8,127.0,0.23,1.3,7.1,"12:07:20",1
"19/01/25","12:20",0.0,7.6,67.3,1013.0,211.2,2.0,3.4,232.6,0.36,2.0,7.4,"12:17:44",1
"19/01/25","12:30",0.0,7.3,65.1,1012.6,195.0,2.3,4.1,225.9,0.36,1.2,7.2,"12:26:56",1
"19/01/25","12:40",0.0,8.2,64.8,1012.3,169.2,2.1,4.0,176.4,0.45,2.0,7.6,"12:35:28",1
"19/01/25","12:50",0.0,8.6,61.6,1012.3,174.8,2.0,3.7,209.8,0.46,1.7,7.8,"12:42:48",1
"19/01/25","13:00",0.0,8.5,61.6,1012.1,158.6,2.3,4.9,152.4,0.45,1.6,8.1,"12:51:04",1
"19/01/25","13:10",0.0,7.4,62.1,1012.1,137.0,1.7,4.7,113.1,0.18,0.7,8.1,"13:05:36",1
"19/01/25","13:20",0.0,7.6,62.4,1011.6,223.5,1.6,3.1,232.4,0.21,0.9,8.3,"13:17:04",1
"19/01/25","13:30",0.0,7.7,60.6,1011.4,293.4,1.2,2.2,316.2,0.17,0.6,8.3,"13:25:44",1
"19/01/25","13:40",0.0,8.0,60.5,1010.9,251.6,1.5,3.1,191.6,0.10,0.9,8.3,"13:39:44",1
"19/01/25","13:50",0.0,7.9,59.3,1010.9,271.3,1.1,2.7,242.5,0.07,0.5,8.5,"13:40:40",1
"19/01/25","14:00",0.0,7.9,58.8,1010.7,301.8,0.8,1.2,350.5,0.04,0.4,8.5,"13:50:08",1
"19/01/25","14:10",0.0,8.0,58.5,1010.4,233.0,0.8,2.5,230.3,0.06,0.4,8.3,"14:01:20",1
"19/01/25","14:20",0.0,8.2,57.4,1010.2,318.6,1.6,2.9,314.7,0.06,0.3,8.3,"14:11:36",1
"19/01/25","14:30",0.0,8.2,56.9,1009.7,329.2,1.8,2.6,318.9,0.04,0.2,8.4,"14:27:52",1
"19/01/25","14:40",0.0,8.0,57.7,1010.0,296.5,1.8,2.5,315.3,0.03,0.2,8.4,"14:34:00",1
"19/01/25","14:50",0.0,7.9,58.9,1010.0,234.6,1.2,2.9,202.8,0.01,0.4,8.4,"14:44:24",1
"19/01/25","15:00",0.0,7.9,58.9,1010.0,281.0,2.1,3.9,284.7,0.01,0.4,8.4,"14:56:48",1
"19/01/25","15:10",0.0,8.2,58.4,1009.7,267.4,2.2,3.7,309.4,0.04,0.6,8.1,"15:02:24",1
"19/01/25","15:20",0.0,8.2,57.8,1009.7,244.6,3.0,4.4,228.6,0.09,0.4,8.1,"15:12:40",1
"19/01/25","15:30",0.0,8.2,57.9,1009.7,270.3,2.7,4.4,278.1,0.09,0.5,8.2,"15:27:04",1
"19/01/25","15:40",0.0,8.1,58.4,1010.0,277.3,3.0,5.9,231.0,0.13,0.5,8.2,"15:30:02",1
"19/01/25","15:50",0.0,8.3,58.9,1009.5,277.2,2.6,4.8,228.7,0.13,0.8,8.1,"15:40:08",1
"19/01/25","16:00",0.0,8.1,58.8,1009.5,253.9,2.2,5.2,242.4,0.07,0.6,7.9,"15:54:40",1
"19/01/25","16:10",0.0,7.9,58.9,1009.5,279.8,3.0,5.7,318.0,0.05,0.4,7.7,"16:03:44",1
"19/01/25","16:20",0.0,7.8,59.0,1009.7,283.4,2.6,4.9,303.5,0.04,0.3,8.0,"16:11:12",1
"19/01/25","16:30",0.0,7.7,59.6,1009.3,290.6,2.0,3.1,313.2,0.02,0.4,8.0,"16:27:52",1
"19/01/25","16:40",0.0,7.7,59.4,1009.3,284.5,1.5,2.5,252.3,0.02,0.3,7.9,"16:33:28",1
"19/01/25","16:50",0.0,7.7,59.1,1009.0,323.3,1.7,2.8,310.5,0.00,0.3,7.9,"16:43:52",1
"19/01/25","17:00",0.0,7.6,59.8,1009.0,303.0,1.7,2.9,314.8,0.00,0.3,7.9,"16:51:20",1
"19/01/25","17:10",0.0,7.5,60.1,1009.0,280.5,1.8,3.1,320.5,0.00,0.3,7.9,"17:01:20",1
"19/01/25","17:20",0.0,7.4,61.2,1008.6,259.8,1.2,2.1,249.5,0.00,0.5,7.9,"17:10:02",1
"19/01/25","17:30",0.0,7.3,61.9,1008.6,258.9,1.8,3.3,242.7,0.00,0.5,7.7,"17:20:08",1
"19/01/25","17:40",0.0,7.1,61.8,1008.3,268.8,1.5,2.2,274.5,0.00,0.3,7.7,"17:33:20",1
"19/01/25","17:50",0.0,6.9,63.0,1008.6,275.0,1.5,2.7,302.4,0.00,0.4,7.5,"17:42:16",1
"19/01/25","18:00",0.0,6.7,64.4,1008.1,274.7,1.6,2.2,270.9,0.00,0.5,7.7,"17:58:40",1
"19/01/25","18:10",0.0,6.4,65.4,1008.6,309.2,2.2,2.7,318.0,0.00,0.4,7.3,"18:01:36",1
"19/01/25","18:20",0.0,5.9,68.6,1008.6,319.1,2.2,2.9,318.1,0.00,0.6,7.5,"18:18:40",1
"19/01/25","18:30",0.0,5.5,71.5,1008.3,317.6,1.8,2.6,326.6,0.00,0.8,7.2,"18:26:56",1
"19/01/25","18:40",0.0,5.3,73.2,1008.3,308.3,2.0,2.8,324.4,0.00,0.9,7.2,"18:37:36",1
"19/01/25","18:50",0.0,5.2,74.0,1008.1,295.8,2.1,2.6,307.4,0.00,1.0,7.3,"18:42:48",1
"19/01/25","19:00",0.0,5.1,74.6,1007.8,302.1,2.2,2.8,311.7,0.00,1.0,7.2,"18:55:20",1
"19/01/25","19:10",0.0,5.1,75.1,1008.1,308.8,2.6,3.4,319.2,0.00,1.1,7.2,"19:08:48",1
"19/01/25","19:20",0.0,5.1,75.2,1008.3,294.5,2.2,3.2,317.7,0.00,1.1,7.0,"19:17:52",1
"19/01/25","19:30",0.0,5.0,75.6,1007.8,299.2,2.0,3.3,318.9,0.00,1.1,7.0,"19:27:28",1
"19/01/25","19:40",0.0,4.9,76.1,1008.1,283.2,1.7,2.8,285.9,0.00,1.1,6.8,"19:39:28",1
"19/01/25","19:50",0.0,5.0,75.9,1007.4,297.0,2.1,2.8,318.9,0.00,1.1,7.0,"19:40:02",1
"19/01/25","20:00",0.0,5.0,76.3,1008.1,315.3,2.8,4.1,320.1,0.00,1.2,7.0,"19:58:56",1
"19/01/25","20:10",0.0,4.8,76.7,1007.6,294.3,1.7,2.5,311.3,0.00,1.1,6.7,"20:03:36",1
"19/01/25","20:20",0.0,4.8,77.4,1007.6,291.1,1.8,2.9,311.7,0.00,1.2,6.8,"20:18:24",1
"19/01/25","20:30",0.0,4.8,77.6,1007.4,308.1,2.5,3.3,318.0,0.00,1.3,6.8,"20:26:24",1
"19/01/25","20:40",0.0,4.7,77.7,1007.4,292.2,1.7,2.6,317.6,0.00,1.2,6.8,"20:30:48",1
"19/01/25","20:50",0.0,4.6,78.6,1007.1,288.4,1.6,1.9,307.3,0.00,1.2,6.6,"20:45:36",1
"19/01/25","21:00",0.0,4.6,78.8,1007.4,295.8,1.8,2.8,314.1,0.00,1.3,6.6,"20:57:04",1
"19/01/25","21:10",0.0,4.5,79.9,1007.6,281.8,1.5,2.2,288.0,0.00,1.4,6.3,"21:03:36",1
"19/01/25","21:20",0.0,4.5,80.5,1006.9,289.7,2.0,3.1,322.5,0.00,1.5,6.7,"21:10:02",1
"19/01/25","21:30",0.0,4.5,80.5,1007.4,289.9,2.3,3.7,313.1,0.00,1.5,6.4,"21:21:44",1
"19/01/25","21:40",0.0,4.4,80.9,1006.7,299.0,2.1,3.3,319.0,0.00,1.5,6.5,"21:35:44",1
"19/01/25","21:50",0.0,4.2,82.0,1006.7,277.4,1.6,1.9,292.4,0.00,1.4,6.3,"21:40:08",1
"19/01/25","22:00",0.0,4.1,82.8,1006.2,282.7,1.2,2.1,309.8,0.00,1.5,6.3,"21:52:08",1
"19/01/25","22:10",0.0,4.2,83.3,1006.2,298.2,1.5,2.6,306.6,0.00,1.7,6.5,"22:06:40",1
"19/01/25","22:20",0.0,4.1,83.6,1006.2,322.5,2.7,4.4,323.9,0.00,1.6,6.3,"22:14:56",1
"19/01/25","22:30",0.0,3.8,84.5,1006.2,288.3,1.7,2.4,264.3,0.00,1.5,6.4,"22:22:48",1
"19/01/25","22:40",0.0,3.6,84.9,1006.4,305.8,2.0,3.4,316.8,0.00,1.3,6.1,"22:36:00",1
"19/01/25","22:50",0.0,3.4,85.8,1006.0,281.6,1.7,2.7,313.9,0.00,1.3,6.3,"22:40:02",1
"19/01/25","23:00",0.0,3.3,87.1,1005.7,279.2,1.7,2.7,274.5,0.00,1.4,6.1,"22:59:20",1
"19/01/25","23:10",0.0,3.1,86.9,1005.7,294.4,2.1,3.9,321.6,0.00,1.2,6.1,"23:05:28",1
"19/01/25","23:20",0.0,3.0,88.2,1006.0,303.6,1.8,3.4,320.3,0.00,1.3,6.0,"23:12:16",1
"19/01/25","23:30",0.0,2.9,88.2,1005.5,303.8,1.8,3.3,316.6,0.00,1.2,6.0,"23:25:28",1
"19/01/25","23:40",0.0,2.8,88.5,1005.2,292.5,1.7,3.4,304.8,0.00,1.1,6.0,"23:35:04",1
"19/01/25","23:50",0.0,3.1,89.5,1005.5,293.3,2.3,3.9,267.5,0.00,1.6,5.8,"23:48:24",1
"19/01/25","24:00",0.0,3.5,88.8,1005.5,295.7,2.6,4.2,259.4,0.00,1.9,5.8,"23:56:32",1
